Content
SEND FEEDBACK

Daily
Averages
Monthly
Summary
Turkmenistan

ASHGABAT, TURKMENISTAN


Home > Asia > Turkmenistan
Elevation: 775 feet     Latitude: 37 58N     Longitude: 058 20E

WEATHER
 
SELECT A DAY
Number of Records: 177,268;   Date Range: 3/15/97 - 7/29/14
 
SHARE

PRINT THIS DATA

[ ← Previous Day ]
WEATHER ALMANAC - JULY 21, 2013
[ Next Day → ]
[ °C ]   °F
Weather ElementAverageHighLow
Temperature90.5 °F98.6 °F (4:00 pm)84.2 °F (6:00 am)
Dewpoint57 °F63 °F (5:00 am)50 °F (8:00 pm)
Humidity31.2 %45 % (8:00 am)20 % (8:00 pm)
Barometer29.72 in29.80 in (7:00 am)29.62 in (8:00 pm)
Wind Speed7.4 mph13.4 mph (8:30 am)
Wind Gust20.1 mph (11:30 am)
Weather ElementAverage
Visibility6.2 mi
Wind DirectionWSW (244.2 °)

Weather ElementTotal
Precipitation---
Cooling Degree Days26.4 (Base 65)
Growing Degree Days41.4 (Base 50)
Averaged from 43 records on July 21, 2013
WEATHER CONDITIONS BREAKOUT
WIND DIRECTION BREAKOUT
WEATHER BY HOUR - JULY 21, 2013
[ °C ]   °F
Local TimeTemperatureDewpointHumidityBarometerVisibilityWind DirectionWind SpeedGust SpeedPrecipitationEventsConditions
1:00 AM91.4 °F57.2 °F31 %29.71 in6.2 miWest (260°)6.7 mphMostly Cloudy
2:00 AM88.0 °F61.0 °F30 %29.69 in6.0 miNNW (330°)6.7 mphMostly Cloudy
2:00 AM87.8 °F60.8 °F40 %29.71 in6.2 miNorth (350°)6.7 mphMostly Cloudy
2:30 AM87.8 °F60.8 °F40 %29.71 in6.2 miNorth (350°)8.9 mphMostly Cloudy
3:00 AM87.8 °F60.8 °F40 %29.71 in6.2 miNNW (340°)11.2 mphMostly Cloudy
3:30 AM87.8 °F60.8 °F40 %29.74 in6.2 miNorth (350°)8.9 mphMostly Cloudy
4:00 AM86.0 °F60.8 °F43 %29.74 in6.2 miNNW (340°)8.9 mphOvercast
5:00 AM86.0 °F63.0 °F36 %29.72 in6.0 miWNW (300°)8.9 mphMostly Cloudy
5:00 AM86.0 °F60.8 °F43 %29.77 in6.2 miWNW (300°)8.9 mphOvercast
6:00 AM84.2 °F59.0 °F42 %29.77 in6.2 miNW (310°)6.7 mphOvercast
6:30 AM84.2 °F59.0 °F42 %29.77 in6.2 miWNW (290°)6.7 mphOvercast
7:00 AM84.2 °F59.0 °F42 %29.80 in6.2 miWNW (300°)4.5 mphOvercast
7:30 AM84.2 °F59.0 °F42 %29.80 in6.2 miNW (310°)6.7 mphOvercast
8:00 AM85.0 °F62.0 °F35 %29.78 in6.0 miNW (320°)6.7 mphMostly Cloudy
8:00 AM84.2 °F60.8 °F45 %29.80 in6.2 miNW (320°)6.7 mphMostly Cloudy
8:30 AM86.0 °F59.0 °F40 %29.80 in6.2 miNW (320°)13.4 mphMostly Cloudy
9:00 AM87.8 °F57.2 °F35 %29.80 in6.2 miNNW (330°)11.2 mphScattered Clouds
9:30 AM87.8 °F57.2 °F35 %29.80 in6.2 miNNW (330°)13.4 mphScattered Clouds
10:00 AM89.6 °F57.2 °F33 %29.80 in6.2 miNNW (330°)11.2 mphScattered Clouds
10:30 AM87.8 °F55.4 °F33 %29.77 in6.2 miNorth (350°)8.9 mphMostly Cloudy
11:00 AM89.6 °F55.4 °F31 %29.77 in6.2 miNorth (350°)8.9 mphMostly Cloudy
11:00 AM88.0 °F56.0 °F24 %29.76 in6.0 miNorth (350°)8.9 mphScattered Clouds
11:30 AM89.6 °F55.4 °F31 %29.77 in6.2 miNNW (340°)8.9 mph20.1 mphMostly Cloudy
12:00 PM91.4 °F55.4 °F29 %29.77 in6.2 miNW (320°)4.5 mphMostly Cloudy
12:30 PM91.4 °F55.4 °F29 %29.74 in6.2 miNNW (330°)6.7 mphMostly Cloudy
1:00 PM91.4 °F55.4 °F29 %29.74 in6.2 miNW (320°)6.7 mphMostly Cloudy
2:00 PM95.0 °F55.4 °F26 %29.74 in6.2 miNW (310°)6.7 mphScattered Clouds
2:00 PM92.0 °F59.0 °F23 %29.70 in6.0 miNW (320°)8.9 mphScattered Clouds
3:00 PM96.8 °F55.4 °F25 %29.71 in6.2 miNE (40°)6.7 mphScattered Clouds
4:00 PM98.6 °F55.4 °F24 %29.68 in6.2 miNorth (10°)6.7 mphScattered Clouds
4:30 PM98.6 °F53.6 °F22 %29.68 in6.2 miNNE (20°)4.5 mphScattered Clouds
5:00 PM98.6 °F53.6 °F22 %29.68 in6.2 miNE (40°)4.5 mphMostly Cloudy
5:00 PM96.0 °F60.0 °F21 %29.66 in6.0 miNE (50°)4.5 mphScattered Clouds
5:30 PM98.6 °F53.6 °F22 %29.65 in6.2 miVariable2.2 mphMostly Cloudy
6:00 PM98.6 °F53.6 °F22 %29.65 in6.2 miSE (140°)6.7 mphMostly Cloudy
6:30 PM98.6 °F53.6 °F22 %29.65 in6.2 miSouth (170°)4.5 mphMostly Cloudy
7:00 PM96.8 °F53.6 °F23 %29.65 in6.2 miSSE (160°)6.7 mphMostly Cloudy
8:00 PM95.0 °F50.0 °F22 %29.65 in6.2 miESE (110°)6.7 mphMostly Cloudy
8:00 PM95.0 °F58.0 °F20 %29.62 in6.0 miESE (110°)8.9 mphPartly Cloudy
9:00 PM91.4 °F53.6 °F28 %29.65 in6.2 miESE (110°)6.7 mphScattered Clouds
10:00 PM89.6 °F51.8 °F27 %29.65 in6.2 miESE (110°)6.7 mphPartly Cloudy
11:00 PM88.0 °F56.0 °F24 %29.63 in6.0 miSouth (180°)4.5 mph
11:00 PM89.6 °F51.8 °F27 %29.65 in6.2 miSouth (180°)4.5 mphClear
Hourly data recorded from UTAA, located miles away from Ashgabat, Turkmenistan







STORIES FROM OUR PARTNERS